Flag for Ireland Weather past 2 weeks in Limerick, Ireland

Now
52 °F

Partly sunny.


Feels Like: 47 °F
Forecast: 44 / 57 °F
Wind: 13 mph from West

Location: Shannon Airport


UV Index: 0 (Low)

Visibility: N/A


Pressure: 30.21 "Hg

Humidity: 72%

Dew point: 43 °F

Location of LimerickLocation

Historic Weather in Limerick

°F

Limerick temperature yesterday

Maximum temperature yesterday: 64 °F (at 3:00 PM)
Minimum temperature yesterday: 46 °F (at 12:00 AM)
Average temperature yesterday: 54 °F

Past Weeks' High & Low Weather Summary

 TemperatureHumidityPressure
High64 °F (Apr 16, 3:00 PM)100% (Apr 3, 8:30 AM)30.39 "Hg (Apr 3, 8:30 AM)
Low41 °F (Apr 8, 1:00 AM)42% (Apr 15, 2:00 PM)29.36 "Hg (Apr 6, 6:30 AM)
Average51 °F79%29.97 "Hg
* Reported Apr 2 10:00 AM — Apr 17 10:30 AM, Limerick, Weather by CustomWeather, © 2014

Note: Actual official high and low records may vary slightly from our data, if they occured in-between our weather recording intervals... More about our weather records

Advertising

Historic Weather Conditions — Data for Previous 24 hours

 ConditionsComfort  
Time TempWeatherWind HumidityBarometerVisibility
10:30 AM
Apr 17
52 °FPartly sunny.15 mph72%30.21 "HgN/A
10:00 AM52 °FPartly sunny.14 mph72%30.21 "HgN/A
9:30 AM52 °FPartly sunny.14 mph72%30.21 "HgN/A
9:00 AM52 °FScattered clouds.14 mph72%30.21 "HgN/A
8:30 AM50 °FScattered clouds.14 mph82%30.21 "HgN/A
8:00 AM50 °FScattered clouds.10 mph82%30.21 "HgN/A
7:30 AM50 °FPassing clouds.13 mph88%30.21 "HgN/A
7:00 AM50 °FPartly cloudy.10 mph88%30.18 "HgN/A
6:30 AM50 °FPassing clouds.9 mph94%30.18 "HgN/A
6:00 AM50 °FPassing clouds.9 mph94%30.15 "HgN/A
5:30 AM50 °FPassing clouds.12 mph94%30.15 "HgN/A
5:00 AM50 °FPassing clouds.8 mph94%30.18 "HgN/A
4:30 AM50 °FPassing clouds.9 mph88%30.18 "HgN/A
4:00 AM50 °FPassing clouds.7 mph88%30.18 "HgN/A
3:30 AM50 °FPartly cloudy.12 mph88%30.18 "HgN/A
3:00 AM50 °FPassing clouds.8 mph94%30.18 "HgN/A
2:30 AM50 °FPassing clouds.8 mph94%30.18 "HgN/A
2:00 AM52 °FPassing clouds.10 mph88%30.18 "HgN/A
1:30 AM52 °FPartly cloudy.10 mph94%30.18 "HgN/A
1:00 AM52 °FPartly cloudy.12 mph94%30.18 "HgN/A
12:30 AM52 °FPassing clouds.12 mph94%30.18 "HgN/A
12:00 AM52 °FPassing clouds.12 mph94%30.18 "HgN/A
11:30 PM
Apr 16
52 °FPassing clouds.12 mph94%30.18 "HgN/A
11:00 PM52 °FPassing clouds.8 mph94%30.18 "HgN/A
10:00 PM52 °FPassing clouds.13 mph94%30.18 "HgN/A
9:30 PM54 °FDrizzle. Partly sunny.10 mph82%30.15 "HgN/A
9:00 PM54 °FPartly sunny.13 mph82%30.15 "HgN/A
8:30 PM54 °FPartly sunny.9 mph82%30.15 "HgN/A
8:00 PM55 °FPartly sunny.10 mph77%30.15 "HgN/A
7:30 PM57 °FPartly sunny.14 mph67%30.12 "HgN/A
7:00 PM57 °FPartly sunny.9 mph67%30.12 "HgN/A
6:30 PM61 °FScattered clouds.9 mph63%30.12 "HgN/A
6:00 PM61 °FPassing clouds.10 mph63%30.12 "HgN/A
5:30 PM61 °FPassing clouds.14 mph63%30.12 "HgN/A
5:00 PM63 °FPassing clouds.12 mph59%30.12 "HgN/A
4:30 PM63 °FPassing clouds.14 mph56%30.12 "HgN/A
4:00 PM64 °FPassing clouds.16 mph49%30.12 "HgN/A
3:30 PM64 °FPassing clouds.15 mph49%30.12 "HgN/A
3:00 PM64 °FPassing clouds.14 mph49%30.15 "HgN/A
2:30 PM63 °FScattered clouds.17 mph52%30.15 "HgN/A
2:00 PM63 °FScattered clouds.16 mph52%30.15 "HgN/A
1:30 PM61 °FPartly sunny.14 mph59%30.15 "HgN/A
1:00 PM57 °FPartly sunny.15 mph63%30.18 "HgN/A
12:30 PM57 °FPartly sunny.15 mph67%30.18 "HgN/A
12:00 PM57 °FScattered clouds.16 mph67%30.18 "HgN/A
11:30 AM57 °FScattered clouds.17 mph67%30.18 "HgN/A
11:00 AM54 °FPartly sunny.17 mph77%30.18 "HgN/A
Weather by CustomWeather, © 2014

See weather overview